User: anonymous   Login
Location: Gisborne
(38.6530°S, 178.0040°E)
Time: 12:44:09
(UTC+13:00)
Language:

COSMOS 2428 - Orbit

View from above orbital plane
View from above orbital plane
View from above satellite
View from above satellite

Ground track
Ground track

The orbit data is extracted from the following two-line orbital elements,

1 31792U 07029A   19324.57481478 -.00000209  00000-0 -87303-4 0  9991
2 31792  70.9317 353.5431 0009251   9.1505 350.9782 14.12417639639237
Epoch (UTC): 20 November 2019 13:47:43
Eccentricity: 0.0009251
inclination: 70.9317°
perigee height: 844 km
apogee height: 858 km
right ascension of ascending node: 353.5431°
argument of perigee: 9.1505°
revolutions per day: 14.12417639
mean anomaly at epoch: 350.9782°
orbit number at epoch: 63923

The dashed part of the orbit path shows where the satellite is in the earth's shadow,  

DLR